Regional Weather Roundup
Issued by NWS Cleveland, OH

Home | Current Version | Previous Version | Graphics & Text | Print | Product List | Glossary On
Versions: 1 2 3 4 5 6 7 8 9 10 11 12 13 14 15 16 17 18 19 20 21 22 23 24 25 26 27 28 29 30 31 32 33 34 35 36 37 38 39 40 41 42 43 44 45 46 47 48 49 50
000
ASUS41 KCLE 181702
RWRCLE
OHIO REGIONAL WEATHER ROUNDUP
NATIONAL WEATHER SERVICE CLEVELAND, OH
100 PM EDT SAT APR 18 2015

NOTE: "FAIR" INDICATES FEW OR NO CLOUDS BELOW 12,000 FEET WITH NO
SIGNIFICANT WEATHER AND/OR OBSTRUCTIONS TO VISIBILITY.

OHZ001>008-015>018-024>027-034-035-043-044-181800-
   NORTHWEST OHIO

CITY           SKY/WX    TMP DP  RH WIND       PRES   REMARKS
DEFIANCE       PTSUNNY   77  46  33 N5        30.03F
FINDLAY        MOSUNNY   77  48  35 NW5       30.03F
TOLEDO EXPRESS SUNNY     76  47  35 NE7       30.04F
TOLEDO EXEC    SUNNY     73  46  38 NE12      30.06S
LIMA           SUNNY     76  49  38 NW7       30.04F
$$

OHZ009>014-019>023-028>033-038-089-181800-
   NORTHEAST OHIO

CITY           SKY/WX    TMP DP  RH WIND       PRES   REMARKS
CLE-HOPKINS    MOSUNNY   70  42  36 N12       30.09R
CLE-LAKEFRONT  SUNNY     61  43  51 NW5       30.08R
CUY CO. ARPT   MOSUNNY   70  45  40 NW10      30.09R
LORAIN-ELYRIA  SUNNY     71  46  40 NE12      30.07S
ASHTABULA      SUNNY     69  40  34 N12       30.06S
AKRON-CANTON   MOSUNNY   75  43  31 N9G21     30.06S
WOOSTER        MOSUNNY   73  47  39 N10       30.06F
MANSFIELD      MOSUNNY   74  40  29 N9        30.06F
YOUNGSTOWN     MOSUNNY   73  45  36 NW12      30.05F
$$

OHZ042-051>053-060>062-070>072-077>081-181800-
  SOUTHWEST OHIO

CITY           SKY/WX    TMP DP  RH WIND       PRES   REMARKS
CINC-COVINGTON CLOUDY    73  47  39 E8        30.05F
CINC-LUNKEN    CLOUDY    75  51  43 NE8       30.05F
HAMILTON       CLOUDY    75  47  36 E7        30.06S
DAYTON         CLOUDY    75  46  35 CALM      30.07S
WRIGHT-PAT AFB PTSUNNY   74  45  35 N7        30.05S
DAYTON GENERAL PTSUNNY   75  46  35 VRB3      30.06S
WILMINGTON     PTSUNNY   72  46  39 E7        30.06S
$$

OHZ036-037-039>041-045>050-054>059-063>069-073>076-082>088-181800-
  CENTRAL AND SOUTHEAST OHIO

CITY           SKY/WX    TMP DP  RH WIND       PRES   REMARKS
COLUMBUS       PTSUNNY   76  46  34 VRB7      30.03F
OSU AIRPORT    SUNNY     75  45  34 VRB5      30.04F
BOLTON FIELD   SUNNY     73  48  40 N8        30.04F
RICKENBACK AFB NOT AVBL
NEWARK         SUNNY     76  41  28 N8        30.03F
MARION         SUNNY     75  45  34 NW6       30.05F
LANCASTER      SUNNY     75  48  38 VRB7      30.04F
ZANESVILLE     SUNNY     73  43  33 VRB3      30.04F
NEW PHILLY     SUNNY     78  45  30 N7        30.05F
$$



USA.gov is the U.S. government's official web portal to all federal, state and local government web resources and services.